Location: Home
(42.5358°N, 72.7383°W)
Time: 10:51:51
(UTC-05:00)

Courier 1B - Pass Details

Date: 01 December 2021
Orbit: 962 x 1209 km, 28.3° (Epoch: 21 January)

Event Time Altitude Azimuth Distance (km) Brightness Sun altitude
Rises 20:22:37 0° 252° (WSW) 3,845 11.2 -44.2°
Reaches altitude 10° 20:26:04 10° 237° (WSW) 2,844 10.3 -44.8°
Enters shadow 20:27:02 13° 231° (SW) 2,609 10.0 -45.0°
Maximum altitude 20:31:03 21° 191° (S) 2,073 - -45.7°
Drops below altitude 10° 20:35:51 10° 144° (SE) 2,733 - -46.6°
Sets 20:39:06 0° 129° (SE) 3,655 - -47.2°
